Weather in Starobilsk

Ukraine / Luhansk Region     49°16′52″N   38°54′20″E
temp.,
°C
wind,
m/s
gust,
m/s
humid.,
%
clouds,
%
prec.,
mm/h
press.,
hPa
HPBL,
m
19 september, sun
sun1900:00+15ese7143863 0.0 1014343
03:00+14se71554100 0.0 1013426
06:00+15se71358100 0.0 1012419
09:00+18se81249100 0.0 1011642
12:00+15se71372100 0.3 1011476
15:00+18sse71373100 1.9 1010899
18:00+16sse71490100 10.1 1009748
21:00+15sse51095100 12.0 1009442
20 september, mon
mon2000:00+15se5995100 2.3 1008414
03:00+14sse349715 2.3 100882
06:00+14ssw37935 0.4 1008125
09:00+18sw596415 0.4 1008481
12:00+21wsw79526 0.0 10091604
15:00+21wsw89365 0.0 10091978
18:00+18wsw4844100 0.0 1010277
21:00+15nw355398 0.0 1011119
21 september, tue
tue2100:00+13wsw1258100 0.0 101212
03:00+12wnw3461100 0.0 101274
06:00+11w2466100 0.0 1013115
09:00+13wsw345967 0.0 1012666
12:00+15sw5650100 0.0 10121336
15:00+14sw675743 0.0 10121166
18:00+12wnw685499 0.0 1012596
21:00+8w38695 0.0 1013261
22 september, wed
wed2200:00+9w4774100 0.0 1014600
03:00+8w5776100 0.0 1014804
06:00+8w5678100 0.0 1014804
09:00+8w5672100 0.0 1014921
12:00+9w4566100 0.0 10151026
15:00+11wsw4560100 0.1 10151199
18:00+10w3460100 0.0 1015944
21:00+9w226462 0.0 101682
23 september, thu
thu2300:00+9ssw0063100 0.0 101624
03:00+9ese1163100 0.0 101518
06:00+9ese2468100 0.0 1015170
09:00+11ese3560100 0.0 1015567
12:00+14se4548100 0.0 10141538
15:00+15sse3552100 0.2 10131309
18:00+14ne1155100 0.0 101311
21:00+13sse4662100 0.1 1013264